Los Alamitos, CA

8:47 PM PST on January 23, 2018 (GMT -0800)
Los Alamitos Army Air Field

Weather History for KSLI - January, 2013

Change the Weather History Date:

Sunday, January 20, 2013

  Actual Average Record
Temperature  
Mean Temperature 60 °F -  
Max Temperature 79 °F 67 °F 79 °F (2013)
Min Temperature 41 °F 49 °F 41 °F (2008)
Degree Days  
Heating Degree Days 5    
Growing Degree Days 10 (Base 50)    
Moisture  
Dew Point 30 °F    
Average Humidity 39    
Maximum Humidity 64    
Minimum Humidity 9    
Precipitation  
Precipitation 0.00 in - - ()
Sea Level Pressure  
Sea Level Pressure 30.08 in    
Wind  
Wind Speed 3 mph (NW)    
Max Wind Speed 9 mph    
Max Gust Speed -    
Visibility 10 miles    
Events      
Averages and records for this station are not official NWS values.
T = Trace of Precipitation, MM = Missing Value Source: NWS Daily Summary

Daily Weather History Graph

Daily Weather History Graph

Search for Another Location

Airport or City:

Trip Planner

Search our weather history database for the weather conditions in past years. The results will help you decide how hot, cold, wet, or windy it might be!

Date:

Astronomy

Jan. 20, 2013 Rise Set
Actual Time 6:55 AM PST 5:11 PM PST
Civil Twilight 6:28 AM PST 5:38 PM PST
Nautical Twilight 5:58 AM PST 6:08 PM PST
Astronomical Twilight 5:28 AM PST 6:38 PM PST
Moon 12:15 PM PST (1/20) 1:33 AM PST (1/20)
Length of Visible Light 11h 10m
Length of Day
10h 16m
Waxing Gibbous, 67% of the Moon is Illuminated
Jan 20
Waxing Gibbous
Jan 26
Full
Feb 3
Last Quarter
Feb 9
New
Feb 17
First Quarter

Hourly Weather History & Observations

Time (PST) Temp. Windchill Dew Point Humidity Pressure Visibility Wind Dir Wind Speed Gust Speed Precip Events Conditions
12:58 AM 44.8 °F - 31.3 °F 59% 30.14 in 10.0 mi Calm Calm - N/A   Clear
1:58 AM 45.9 °F - 32.0 °F 58% 30.13 in 10.0 mi Calm Calm - N/A   Clear
2:58 AM 43.2 °F 41.5 °F 30.9 °F 62% 30.11 in 10.0 mi WSW 3.5 mph - N/A   Clear
3:58 AM 41.2 °F 36.6 °F 29.8 °F 64% 30.10 in 10.0 mi NNW 6.9 mph - N/A   Clear
4:58 AM 45.5 °F - 25.0 °F 45% 30.11 in 10.0 mi NNW 2.3 mph - N/A   Clear
5:58 AM 45.0 °F - 23.9 °F 44% 30.10 in 10.0 mi NNW 2.3 mph - N/A   Clear
6:58 AM 43.7 °F - 24.1 °F 46% 30.11 in 10.0 mi NW 1.2 mph - N/A   Clear
7:58 AM 46.9 °F - 27.3 °F 46% 30.12 in 10.0 mi Calm Calm - N/A   Clear
8:58 AM 56.3 °F - 28.6 °F 35% 30.13 in 10.0 mi North 2.3 mph - N/A   Clear
9:58 AM 65.5 °F - 27.0 °F 23% 30.14 in 10.0 mi NNW 6.9 mph - N/A   Clear
10:58 AM 72.1 °F - 26.4 °F 18% 30.12 in 10.0 mi NW 8.1 mph - N/A   Clear
11:58 AM 76.5 °F - 19.8 °F 12% 30.08 in 10.0 mi NNW 5.8 mph - N/A   Clear
12:58 PM 79.5 °F - 15.8 °F 9% 30.04 in 10.0 mi North 6.9 mph - N/A   Clear
1:58 PM 76.8 °F - 42.3 °F 29% 30.01 in 10.0 mi SSW 9.2 mph - N/A   Clear
2:58 PM 74.1 °F - 40.5 °F 30% 30.01 in 10.0 mi South 4.6 mph - N/A   Clear
3:58 PM 74.7 °F - 38.8 °F 27% 30.01 in 10.0 mi SW 3.5 mph - N/A   Clear
4:58 PM 69.4 °F - 39.6 °F 34% 30.02 in 10.0 mi South 3.5 mph - N/A   Clear
5:58 PM 64.4 °F - 25.7 °F 23% 30.04 in 10.0 mi NW 2.3 mph - N/A   Clear
6:58 PM 60.3 °F - 28.2 °F 30% 30.06 in 10.0 mi NNW 4.6 mph - N/A   Clear
7:58 PM 56.8 °F - 27.9 °F 33% 30.07 in 10.0 mi NNW 3.5 mph - N/A   Clear
8:58 PM 51.6 °F - 30.2 °F 44% 30.08 in 10.0 mi Calm Calm - N/A   Clear
9:58 PM 48.4 °F - 31.1 °F 51% 30.08 in 10.0 mi NNW 3.5 mph - N/A   Clear
10:58 PM 48.7 °F - 31.6 °F 52% 30.08 in 10.0 mi NE 1.2 mph - N/A   Clear
11:58 PM 46.8 °F - 32.4 °F 57% 30.07 in 10.0 mi Calm Calm - N/A   Clear